Location: Bagnara
(41.0500°N, 14.7833°E)
Time: 23:48:40
(UTC+00:00)

NOSS 3-2 (A) - Visible Passes

Search period start: 23 October 2021 00:00
Search period end: 02 November 2021 00:00
Orbit: 767 x 1440 km, 63.4° (Epoch: 19 October)

Date Brightness Start Highest point End Pass type
(mag) Time Alt. Az. Time Alt. Az. Time Alt. Az.
23 Oct 5.8 17:06:08 10° N 17:08:12 11° N 17:10:20 10° NNE visible
23 Oct 5.3 18:56:01 10° NNW 19:00:29 24° NNE 19:00:29 24° NNE visible
23 Oct 6.0 20:46:13 10° NNW 20:47:52 18° NNW 20:47:52 18° NNW visible
24 Oct 5.4 18:10:52 10° NNW 18:15:53 19° NNE 18:16:29 19° NE visible
24 Oct 5.5 20:00:52 10° NNW 20:03:52 27° NNW 20:03:52 27° NNW visible
25 Oct 5.6 17:25:43 10° NNW 17:29:38 15° NNE 17:32:32 12° NE visible
25 Oct 5.1 19:15:36 10° NNW 19:19:55 32° N 19:19:55 32° N visible
25 Oct 6.3 21:06:18 10° NW 21:07:18 15° NW 21:07:18 15° NW visible
26 Oct 5.7 16:40:33 10° N 16:43:15 12° NNE 16:46:04 10° NE visible
26 Oct 5.0 18:30:23 10° NNW 18:36:00 29° NNE 18:36:00 29° NNE visible
26 Oct 5.7 20:20:44 10° NW 20:23:24 25° NW 20:23:24 25° NW visible
27 Oct 5.2 17:45:13 10° NNW 17:50:46 22° NNE 17:52:08 21° NE visible
27 Oct 5.0 19:35:19 10° NNW 19:39:32 37° NNW 19:39:32 37° NNW visible
28 Oct 5.5 17:00:05 10° NNW 17:04:35 17° NNE 17:08:19 13° ENE visible
28 Oct 4.6 18:50:01 10° NNW 18:55:43 44° NNE 18:55:43 44° NNE visible
28 Oct 6.0 20:40:58 10° NW 20:43:07 20° NW 20:43:07 20° NW visible
29 Oct 4.7 18:04:47 10° NNW 18:11:33 35° NE 18:11:59 35° NE visible
29 Oct 5.2 19:55:18 10° NW 19:59:23 36° NW 19:59:23 36° NW visible
30 Oct 5.0 17:19:35 10° NNW 17:25:36 26° NE 17:28:19 22° ENE visible
30 Oct 4.4 19:09:48 10° NW 19:15:44 59° NNW 19:15:44 59° NNW visible
30 Oct 6.4 21:01:58 10° WNW 21:03:09 14° WNW 21:03:09 14° WNW visible
31 Oct 5.3 16:34:27 10° NNW 16:39:31 20° NNE 16:44:45 11° ENE visible
31 Oct 4.1 18:24:27 10° NNW 18:31:58 60° NE 18:32:11 60° ENE visible
31 Oct 5.7 20:15:44 10° NW 20:19:36 27° WNW 20:19:36 27° WNW visible
01 Nov 4.5 17:39:10 10° NNW 17:46:15 42° NE 17:48:45 35° E visible
01 Nov 4.7 19:29:55 10° NW 19:36:10 50° W 19:36:10 50° W visible
